SCP
2 2 1 2 1 1 1 1 1 1 0 0 0 0 0 0 0 0 0 0 0 0 0 0 0 0 0 0 0 0 0 0 0 0 0 0 0 0 0 0 0 0 0
1 1 2 2 2 2 1 2 1 1 1 0 0 0 0 0 0 0 0 0 0 0 0 0 0 0 0 0 0 0 0 0 0 0 0 0 0 0 0 0 0 0 0
0 0 2 2 2 2 2 2 1 1 1 0 0 0 0 0 0 0 1 0 0 0 0 0 0 0 0 0 0 0 0 0 0 0 0 0 0 0 0 0 0 0 0
0 0 0 1 2 2 2 2 2 1 1 1 0 1 1 0 0 1 1 0 0 0 0 0 0 0 0 0 0 0 0 0 0 0 0 0 0 0 0 0 0 0 0
0 0 0 1 1 1 1 2 2 2 1 1 2 1 1 1 1 1 1 0 0 0 0 0 0 0 0 0 0 0 0 0 0 0 0 0 0 0 0 0 0 0 0
0 0 0 0 1 1 1 1 2 2 2 2 2 1 1 1 1 1 1 0 0 0 0 0 0 0 0 0 0 0 0 0 0 0 0 0 0 0 0 0 -0 0 0
0 0 0 0 0 1 1 1 1 1 2 1 1 1 0 1 1 1 0 0 0 0 0 0 0 0 0 0 0 0 0 0 0 0 0 0 0 0 0 0 0 0 0
0 0 0 0 0 0 0 1 1 1 1 1 1 0 0 0 0 0 0 0 0 0 0 0 0 0 0 0 0 0 0 0 0 0 0 0 0 0 0 0 0 0 0
0 0 0 0 0 1 0 0 1 1 1 1 1 1 0 0 0 0 0 0 0 0 0 0 0 0 0 0 0 0 0 0 0 0 0 0 0 0 0 0 0 0 0
0 0 0 0 0 1 1 0 0 1 1 1 1 1 1 0 0 0 0 0 0 0 0 0 0 0 0 0 0 0 0 0 0 0 0 0 0 0 0 0 0 0 0
0 0 0 0 0 1 1 1 0 1 1 1 1 1 1 1 0 0 0 0 0 0 0 0 0 0 0 0 0 0 0 0 0 0 0 0 0 0 0 0 0 0 0
0 0 0 0 0 0 1 0 0 0 1 1 1 1 2 2 1 0 0 0 0 0 0 0 0 0 0 0 0 0 0 0 0 0 0 0 0 0 0 0 0 0 0
0 0 0 0 0 0 1 0 0 0 1 1 1 2 1 1 1 0 0 0 0 0 0 0 0 0 0 0 0 0 0 0 0 0 0 0 0 0 0 0 0 0 0
0 0 0 0 0 0 0 0 0 0 1 1 1 1 2 2 1 0 0 0 0 0 0 0 0 0 0 0 0 0 0 0 0 0 0 0 0 0 0 0 0 0 0
0 0 0 0 0 0 0 0 0 0 0 1 1 1 1 1 0 0 0 0 0 0 0 0 0 0 0 0 0 0 0 0 0 0 0 0 0 0 0 0 0 0 0
-0 0 0 0 0 0 0 0 0 0 0 1 1 1 1 0 0 0 0 0 0 0 0 0 0 0 0 0 0 0 0 0 0 0 0 0 0 0 0 0 0 0 0
-0 -0 0 0 0 0 0 0 0 0 0 0 0 0 0 0 0 0 0 0 0 0 0 0 0 0 0 0 0 0 0 0 0 0 0 0 0 0 0 0 0 0 0
-0 -0 0 0 0 0 0 0 0 0 0 1 0 0 0 0 0 0 0 0 0 0 0 0 0 0 0 0 0 0 0 0 0 0 0 0 0 0 0 0 0 0 0
-0 -0 0 0 0 0 0 0 0 0 0 0 0 0 0 0 0 0 0 0 0 0 0 0 0 0 0 0 0 0 0 0 0 0 0 0 0 0 0 0 0 0 0
0 0 0 0 0 0 0 0 0 0 0 0 0 0 0 0 0 0 0 0 0 0 0 0 0 0 0 0 0 0 0 0 0 0 0 0 0 0 0 0 0 0 0
-0 0 0 0 0 0 0 0 0 0 0 0 0 0 0 0 0 0 0 0 0 0 0 -0 0 0 0 0 0 0 0 0 0 0 0 0 0 0 0 0 0 0 0
-0 0 0 0 0 -0 0 0 0 0 0 0 0 0 0 0 -0 0 0 0 0 -0 -0 0 0 0 0 0 0 0 0 0 0 0 0 0 0 0 0 0 0 0 0
0 0 -0 -0 -0 -0 0 0 0 0 0 0 0 0 0 0 0 0 -0 -0 -0 -0 -0 -0 0 0 0 0 0 0 0 0 0 0 0 0 0 0 0 0 0 0 0
-0 -0 -0 0 0 0 -0 -0 -0 0 0 0 0 0 0 0 0 -0 -0 -0 -0 -0 -0 -0 0 0 0 0 0 0 0 0 0 0 0 0 0 0 0 0 0 0 0
-0 -0 0 0 0 0 -0 -0 -0 -0 0 0 0 0 0 0 -0 -0 -0 -0 -0 -0 -0 -0 -0 0 0 0 0 0 0 0 0 0 0 0 0 0 0 0 -0 0 0
-0 0 0 0 0 -0 -0 -0 -0 0 0 0 0 0 -0 -0 -0 -0 -0 -0 -0 -0 -0 0 0 0 0 0 0 0 0 0 0 0 0 0 -0 -0 0 -0 -0 -0 -0
Wind_Speed_500mb
44 43 44 50 49 44 39 37 39 48 37 38 39 43 40 36 34 35 32 32 29 18 12 6 7 9 12 8 11 15 24 28 26 30 34 42 45 49 54 56 53 59 65
49 49 48 48 48 46 49 53 50 44 40 38 40 45 46 41 38 39 41 38 32 26 18 14 8 9 8 11 11 15 22 24 25 29 30 37 41 49 53 54 59 60 65
51 51 48 49 49 48 47 47 48 45 47 44 42 41 44 47 41 36 39 39 34 31 23 21 12 12 6 6 8 15 20 22 26 25 28 30 38 44 49 51 57 58 62
34 42 56 52 51 49 50 52 52 49 46 50 50 48 48 43 40 46 45 43 40 35 28 27 18 15 10 8 8 9 16 20 24 25 29 29 33 39 44 49 52 55 59
32 34 40 50 62 58 66 60 56 57 53 59 55 47 50 46 40 39 44 44 37 39 34 30 21 19 15 11 9 7 11 17 20 23 26 30 27 32 39 46 49 51 55
34 34 36 40 43 51 62 60 64 60 57 56 56 56 48 41 42 42 40 40 40 44 38 28 25 26 20 13 12 10 7 14 19 19 22 25 27 29 33 43 48 45 53
32 34 35 45 39 42 51 54 61 64 58 54 44 47 49 48 45 35 36 35 42 42 40 30 26 23 19 17 17 13 7 17 20 16 19 22 20 24 30 34 42 40 48
40 40 38 39 38 41 44 53 48 54 66 63 59 47 27 36 42 41 37 34 45 45 44 34 32 27 20 20 14 17 18 18 17 16 16 22 17 19 25 27 32 35 39
41 41 39 42 40 39 47 46 57 58 55 65 66 43 17 19 35 37 41 42 34 50 47 36 27 26 24 21 19 18 18 16 18 19 16 9 13 24 23 20 26 28 30
47 41 42 37 46 40 41 43 45 57 59 63 73 75 41 31 21 21 38 42 48 61 50 38 31 24 21 17 18 16 13 12 16 14 13 17 21 19 18 17 20 24 21
45 45 41 40 41 42 44 42 46 49 62 68 65 67 51 40 36 34 45 52 51 39 43 36 31 26 19 15 12 9 8 9 5 9 9 10 13 15 16 17 15 19 24
53 45 41 41 41 51 43 47 48 53 59 67 71 70 72 62 46 45 52 58 54 42 39 37 32 23 15 13 10 7 2 1 2 6 6 13 19 27 29 25 24 31 31
52 48 43 51 46 41 48 46 46 54 59 70 70 73 58 55 59 52 64 71 60 47 34 33 24 19 15 9 14 16 25 15 18 28 25 24 25 26 28 27 26 25 24
58 52 59 53 52 44 47 51 54 56 58 67 69 73 64 63 57 60 69 87 61 53 41 47 37 27 26 33 43 37 42 36 25 15 12 15 14 14 10 15 15 19 19
60 55 58 57 53 48 53 52 59 58 62 63 71 74 64 61 62 66 56 86 83 49 46 51 46 50 47 49 45 42 33 24 16 9 6 5 6 6 6 3 5 4 10
60 60 58 60 54 52 51 54 62 63 64 66 65 70 68 73 63 63 59 83 62 69 48 51 62 56 50 43 35 30 26 19 14 10 5 1 2 6 10 8 12 14 19
62 58 62 57 55 54 53 59 61 64 71 63 60 62 72 65 61 55 70 57 53 62 64 68 66 58 51 42 32 24 19 13 10 7 8 8 8 5 7 6 14 21 27
63 59 62 58 48 48 46 49 50 55 62 58 53 64 66 59 54 67 69 56 43 43 51 81 68 59 46 35 30 21 16 14 18 29 31 28 25 25 25 16 14 25 31
64 66 59 47 40 40 28 39 50 44 51 55 61 63 66 66 67 70 62 48 39 49 68 75 72 57 48 34 23 17 15 17 20 24 26 34 33 35 34 34 31 28 30
65 59 55 45 34 38 33 38 50 48 49 58 61 66 65 71 74 64 50 44 46 64 69 75 68 57 41 28 18 16 18 17 18 14 21 28 28 30 34 34 38 39 37
64 59 53 37 30 26 32 31 52 50 64 65 64 58 75 60 49 49 51 53 56 64 74 68 59 46 34 30 20 19 20 19 16 13 16 20 21 24 25 31 35 34 31
59 53 49 33 24 26 42 56 46 65 43 42 73 71 60 59 52 54 55 50 56 64 66 58 47 35 33 25 21 16 12 7 7 14 17 23 20 27 30 36 30 37 34
52 54 47 35 37 38 57 42 39 35 53 83 76 70 57 58 63 64 61 59 57 49 45 42 42 29 30 24 21 22 17 15 12 16 14 22 22 27 26 28 24 27 32
51 55 38 17 31 54 48 62 70 93 85 74 62 63 79 84 80 82 85 81 73 62 49 43 39 38 31 28 23 18 17 21 22 22 15 22 20 24 22 31 26 31 34
53 36 5 55 64 73 74 81 86 86 85 89 86 89 89 87 76 67 68 72 66 56 40 35 34 31 27 26 26 25 22 21 24 25 17 18 19 23 22 23 27 32 30
31 24 57 70 78 77 76 87 90 99 103 100 94 88 78 77 73 62 60 64 64 58 50 47 41 35 30 32 35 27 23 19 18 20 25 15 12 9 23 23 25 25 26
Wind_Direction_500mb
260 264 259 255 257 234 234 239 242 251 240 242 246 244 245 240 245 238 242 245 258 253 256 264 300 316 335 1 358 13 4 11 25 30 25 25 18 18 18 17 15 15 15
258 259 256 257 258 253 243 232 229 244 241 240 244 247 247 239 237 241 246 243 254 249 234 231 265 279 334 337 11 17 8 8 20 28 30 25 15 21 22 19 21 19 18
264 257 259 257 257 255 256 250 244 230 238 240 239 241 251 241 241 230 237 249 251 238 231 229 235 249 293 298 7 21 21 14 17 23 25 32 19 20 24 25 26 23 22
293 287 262 254 256 254 252 255 254 252 230 237 240 236 238 243 236 238 245 240 247 238 227 221 228 226 247 268 324 3 16 6 11 20 20 22 19 20 20 28 26 24 26
311 299 286 278 259 260 255 252 253 251 239 230 227 229 233 235 225 237 232 238 239 233 226 219 225 224 232 246 273 296 354 2 4 6 9 12 19 22 17 22 28 27 25
306 300 294 281 273 268 260 257 250 248 247 241 237 235 235 233 224 232 234 238 230 226 220 224 224 223 228 251 269 277 302 350 344 345 0 2 8 17 18 16 26 23 20
303 298 290 296 281 265 256 257 255 247 244 236 236 225 234 239 224 226 224 240 236 224 217 219 221 206 212 244 254 250 275 332 329 318 331 348 353 5 16 14 19 21 20
299 301 289 282 276 278 266 251 250 254 248 235 220 227 214 221 213 219 222 235 239 223 209 207 216 221 230 239 249 259 283 302 312 338 321 331 337 358 1 10 15 16 22
301 296 291 284 280 271 280 262 244 247 246 239 222 214 176 202 194 213 229 219 247 220 206 214 214 216 226 243 260 270 276 295 312 317 340 16 11 354 352 3 7 12 22
297 295 288 280 280 264 268 273 259 246 242 239 236 220 204 212 174 171 199 210 215 203 198 203 209 209 218 241 262 269 269 295 313 318 317 316 340 358 4 347 357 13 25
299 290 287 286 273 270 267 269 268 260 242 240 242 247 219 215 222 186 170 169 180 190 193 209 213 212 226 244 232 256 265 294 320 323 342 349 0 17 359 358 6 37 73
294 294 288 283 269 259 258 263 266 260 250 238 236 234 218 206 204 194 175 168 177 171 182 190 197 197 203 211 214 237 264 205 75 40 61 61 57 53 53 59 67 93 76
300 290 286 274 268 263 258 267 268 255 248 236 233 232 236 228 213 206 186 170 160 144 144 157 174 179 180 192 168 146 144 171 133 119 110 98 78 68 59 62 77 76 61
302 288 282 286 279 270 263 262 265 253 245 236 230 228 227 228 214 216 194 183 146 138 135 132 147 157 152 155 147 153 127 146 133 137 124 108 101 86 45 82 80 74 70
305 292 292 291 284 271 265 256 262 254 242 233 226 223 218 220 213 213 201 194 182 144 138 137 128 143 148 145 144 147 127 133 130 134 117 69 12 15 74 44 93 112 96
307 298 295 291 288 280 270 261 257 254 237 230 225 217 212 211 213 212 199 185 177 181 150 149 141 149 152 156 147 136 130 129 129 129 107 81 61 340 334 350 317 297 288
308 301 291 294 286 281 270 265 258 244 232 226 224 209 207 206 207 198 184 169 178 182 158 148 148 154 156 153 146 139 131 112 89 72 14 344 325 6 22 327 307 295 304
310 301 296 298 292 283 288 261 240 226 221 218 215 204 201 196 183 182 172 174 179 177 185 156 151 154 156 150 142 126 107 88 77 65 63 65 57 51 45 26 317 294 294
308 304 309 305 301 286 270 242 225 220 211 204 201 197 190 180 171 168 168 172 176 172 170 164 153 154 148 139 133 109 98 79 69 71 68 67 54 52 40 33 23 18 27
311 305 314 314 311 291 288 273 202 197 190 187 195 185 177 169 166 158 158 171 176 166 166 162 157 152 147 130 115 122 95 81 79 71 53 64 48 49 40 33 33 42 51
311 311 319 316 319 282 297 224 183 192 176 165 168 168 162 146 144 147 169 168 166 164 162 161 154 145 132 123 141 140 130 128 94 68 72 58 65 33 36 47 50 43 51
313 318 320 324 320 279 287 192 180 162 155 175 152 140 139 145 158 163 156 152 161 154 157 155 144 129 139 159 128 133 130 75 77 60 63 53 52 61 47 62 56 64 54
317 320 320 315 297 247 234 179 172 172 164 144 135 140 146 153 149 137 132 135 135 137 136 139 137 137 127 137 151 138 149 161 119 100 67 70 52 55 44 77 59 51 46
323 325 324 319 159 153 171 172 151 139 134 135 140 143 134 129 133 136 135 131 127 127 136 144 141 134 133 140 144 141 122 102 99 100 86 80 68 64 46 45 59 53 54
330 332 1 146 143 134 128 127 129 131 137 133 133 131 132 133 139 142 141 136 135 132 129 122 123 123 119 112 92 87 103 110 98 94 90 91 79 74 63 51 38 32 43
352 48 134 140 141 133 139 136 140 140 128 126 126 127 130 130 135 137 135 135 126 120 126 124 117 114 112 116 124 118 129 119 109 79 93 83 113 89 63 46 42 40 31
Wind_Speed_850mb
44 43 44 50 49 44 39 37 39 48 37 38 39 43 40 36 34 35 32 32 29 18 12 6 7 9 12 8 11 15 24 28 26 30 34 42 45 49 54 56 53 59 65
49 49 48 48 48 46 49 53 50 44 40 38 40 45 46 41 38 39 41 38 32 26 18 14 8 9 8 11 11 15 22 24 25 29 30 37 41 49 53 54 59 60 65
51 51 48 49 49 48 47 47 48 45 47 44 42 41 44 47 41 36 39 39 34 31 23 21 12 12 6 6 8 15 20 22 26 25 28 30 38 44 49 51 57 58 62
34 42 56 52 51 49 50 52 52 49 46 50 50 48 48 43 40 46 45 43 40 35 28 27 18 15 10 8 8 9 16 20 24 25 29 29 33 39 44 49 52 55 59
32 34 40 50 62 58 66 60 56 57 53 59 55 47 50 46 40 39 44 44 37 39 34 30 21 19 15 11 9 7 11 17 20 23 26 30 27 32 39 46 49 51 55
34 34 36 40 43 51 62 60 64 60 57 56 56 56 48 41 42 42 40 40 40 44 38 28 25 26 20 13 12 10 7 14 19 19 22 25 27 29 33 43 48 45 53
32 34 35 45 39 42 51 54 61 64 58 54 44 47 49 48 45 35 36 35 42 42 40 30 26 23 19 17 17 13 7 17 20 16 19 22 20 24 30 34 42 40 48
40 40 38 39 38 41 44 53 48 54 66 63 59 47 27 36 42 41 37 34 45 45 44 34 32 27 20 20 14 17 18 18 17 16 16 22 17 19 25 27 32 35 39
41 41 39 42 40 39 47 46 57 58 55 65 66 43 17 19 35 37 41 42 34 50 47 36 27 26 24 21 19 18 18 16 18 19 16 9 13 24 23 20 26 28 30
47 41 42 37 46 40 41 43 45 57 59 63 73 75 41 31 21 21 38 42 48 61 50 38 31 24 21 17 18 16 13 12 16 14 13 17 21 19 18 17 20 24 21
45 45 41 40 41 42 44 42 46 49 62 68 65 67 51 40 36 34 45 52 51 39 43 36 31 26 19 15 12 9 8 9 5 9 9 10 13 15 16 17 15 19 24
53 45 41 41 41 51 43 47 48 53 59 67 71 70 72 62 46 45 52 58 54 42 39 37 32 23 15 13 10 7 2 1 2 6 6 13 19 27 29 25 24 31 31
52 48 43 51 46 41 48 46 46 54 59 70 70 73 58 55 59 52 64 71 60 47 34 33 24 19 15 9 14 16 25 15 18 28 25 24 25 26 28 27 26 25 24
58 52 59 53 52 44 47 51 54 56 58 67 69 73 64 63 57 60 69 87 61 53 41 47 37 27 26 33 43 37 42 36 25 15 12 15 14 14 10 15 15 19 19
60 55 58 57 53 48 53 52 59 58 62 63 71 74 64 61 62 66 56 86 83 49 46 51 46 50 47 49 45 42 33 24 16 9 6 5 6 6 6 3 5 4 10
60 60 58 60 54 52 51 54 62 63 64 66 65 70 68 73 63 63 59 83 62 69 48 51 62 56 50 43 35 30 26 19 14 10 5 1 2 6 10 8 12 14 19
62 58 62 57 55 54 53 59 61 64 71 63 60 62 72 65 61 55 70 57 53 62 64 68 66 58 51 42 32 24 19 13 10 7 8 8 8 5 7 6 14 21 27
63 59 62 58 48 48 46 49 50 55 62 58 53 64 66 59 54 67 69 56 43 43 51 81 68 59 46 35 30 21 16 14 18 29 31 28 25 25 25 16 14 25 31
64 66 59 47 40 40 28 39 50 44 51 55 61 63 66 66 67 70 62 48 39 49 68 75 72 57 48 34 23 17 15 17 20 24 26 34 33 35 34 34 31 28 30
65 59 55 45 34 38 33 38 50 48 49 58 61 66 65 71 74 64 50 44 46 64 69 75 68 57 41 28 18 16 18 17 18 14 21 28 28 30 34 34 38 39 37
64 59 53 37 30 26 32 31 52 50 64 65 64 58 75 60 49 49 51 53 56 64 74 68 59 46 34 30 20 19 20 19 16 13 16 20 21 24 25 31 35 34 31
59 53 49 33 24 26 42 56 46 65 43 42 73 71 60 59 52 54 55 50 56 64 66 58 47 35 33 25 21 16 12 7 7 14 17 23 20 27 30 36 30 37 34
52 54 47 35 37 38 57 42 39 35 53 83 76 70 57 58 63 64 61 59 57 49 45 42 42 29 30 24 21 22 17 15 12 16 14 22 22 27 26 28 24 27 32
51 55 38 17 31 54 48 62 70 93 85 74 62 63 79 84 80 82 85 81 73 62 49 43 39 38 31 28 23 18 17 21 22 22 15 22 20 24 22 31 26 31 34
53 36 5 55 64 73 74 81 86 86 85 89 86 89 89 87 76 67 68 72 66 56 40 35 34 31 27 26 26 25 22 21 24 25 17 18 19 23 22 23 27 32 30
31 24 57 70 78 77 76 87 90 99 103 100 94 88 78 77 73 62 60 64 64 58 50 47 41 35 30 32 35 27 23 19 18 20 25 15 12 9 23 23 25 25 26
Wind_Direction_850mb
260 264 259 255 257 234 234 239 242 251 240 242 246 244 245 240 245 238 242 245 258 253 256 264 300 316 335 1 358 13 4 11 25 30 25 25 18 18 18 17 15 15 15
258 259 256 257 258 253 243 232 229 244 241 240 244 247 247 239 237 241 246 243 254 249 234 231 265 279 334 337 11 17 8 8 20 28 30 25 15 21 22 19 21 19 18
264 257 259 257 257 255 256 250 244 230 238 240 239 241 251 241 241 230 237 249 251 238 231 229 235 249 293 298 7 21 21 14 17 23 25 32 19 20 24 25 26 23 22
293 287 262 254 256 254 252 255 254 252 230 237 240 236 238 243 236 238 245 240 247 238 227 221 228 226 247 268 324 3 16 6 11 20 20 22 19 20 20 28 26 24 26
311 299 286 278 259 260 255 252 253 251 239 230 227 229 233 235 225 237 232 238 239 233 226 219 225 224 232 246 273 296 354 2 4 6 9 12 19 22 17 22 28 27 25
306 300 294 281 273 268 260 257 250 248 247 241 237 235 235 233 224 232 234 238 230 226 220 224 224 223 228 251 269 277 302 350 344 345 0 2 8 17 18 16 26 23 20
303 298 290 296 281 265 256 257 255 247 244 236 236 225 234 239 224 226 224 240 236 224 217 219 221 206 212 244 254 250 275 332 329 318 331 348 353 5 16 14 19 21 20
299 301 289 282 276 278 266 251 250 254 248 235 220 227 214 221 213 219 222 235 239 223 209 207 216 221 230 239 249 259 283 302 312 338 321 331 337 358 1 10 15 16 22
301 296 291 284 280 271 280 262 244 247 246 239 222 214 176 202 194 213 229 219 247 220 206 214 214 216 226 243 260 270 276 295 312 317 340 16 11 354 352 3 7 12 22
297 295 288 280 280 264 268 273 259 246 242 239 236 220 204 212 174 171 199 210 215 203 198 203 209 209 218 241 262 269 269 295 313 318 317 316 340 358 4 347 357 13 25
299 290 287 286 273 270 267 269 268 260 242 240 242 247 219 215 222 186 170 169 180 190 193 209 213 212 226 244 232 256 265 294 320 323 342 349 0 17 359 358 6 37 73
294 294 288 283 269 259 258 263 266 260 250 238 236 234 218 206 204 194 175 168 177 171 182 190 197 197 203 211 214 237 264 205 75 40 61 61 57 53 53 59 67 93 76
300 290 286 274 268 263 258 267 268 255 248 236 233 232 236 228 213 206 186 170 160 144 144 157 174 179 180 192 168 146 144 171 133 119 110 98 78 68 59 62 77 76 61
302 288 282 286 279 270 263 262 265 253 245 236 230 228 227 228 214 216 194 183 146 138 135 132 147 157 152 155 147 153 127 146 133 137 124 108 101 86 45 82 80 74 70
305 292 292 291 284 271 265 256 262 254 242 233 226 223 218 220 213 213 201 194 182 144 138 137 128 143 148 145 144 147 127 133 130 134 117 69 12 15 74 44 93 112 96
307 298 295 291 288 280 270 261 257 254 237 230 225 217 212 211 213 212 199 185 177 181 150 149 141 149 152 156 147 136 130 129 129 129 107 81 61 340 334 350 317 297 288
308 301 291 294 286 281 270 265 258 244 232 226 224 209 207 206 207 198 184 169 178 182 158 148 148 154 156 153 146 139 131 112 89 72 14 344 325 6 22 327 307 295 304
310 301 296 298 292 283 288 261 240 226 221 218 215 204 201 196 183 182 172 174 179 177 185 156 151 154 156 150 142 126 107 88 77 65 63 65 57 51 45 26 317 294 294
308 304 309 305 301 286 270 242 225 220 211 204 201 197 190 180 171 168 168 172 176 172 170 164 153 154 148 139 133 109 98 79 69 71 68 67 54 52 40 33 23 18 27
311 305 314 314 311 291 288 273 202 197 190 187 195 185 177 169 166 158 158 171 176 166 166 162 157 152 147 130 115 122 95 81 79 71 53 64 48 49 40 33 33 42 51
311 311 319 316 319 282 297 224 183 192 176 165 168 168 162 146 144 147 169 168 166 164 162 161 154 145 132 123 141 140 130 128 94 68 72 58 65 33 36 47 50 43 51
313 318 320 324 320 279 287 192 180 162 155 175 152 140 139 145 158 163 156 152 161 154 157 155 144 129 139 159 128 133 130 75 77 60 63 53 52 61 47 62 56 64 54
317 320 320 315 297 247 234 179 172 172 164 144 135 140 146 153 149 137 132 135 135 137 136 139 137 137 127 137 151 138 149 161 119 100 67 70 52 55 44 77 59 51 46
323 325 324 319 159 153 171 172 151 139 134 135 140 143 134 129 133 136 135 131 127 127 136 144 141 134 133 140 144 141 122 102 99 100 86 80 68 64 46 45 59 53 54
330 332 1 146 143 134 128 127 129 131 137 133 133 131 132 133 139 142 141 136 135 132 129 122 123 123 119 112 92 87 103 110 98 94 90 91 79 74 63 51 38 32 43
352 48 134 140 141 133 139 136 140 140 128 126 126 127 130 130 135 137 135 135 126 120 126 124 117 114 112 116 124 118 129 119 109 79 93 83 113 89 63 46 42 40 31